Content
SEND FEEDBACK

Daily
Averages
Monthly
Summary
Philippines

OLONGAPO, PHILIPPINES


Home > Asia > Philippines
Elevation: 55 feet     Latitude: 14 48N     Longitude: 120 16E

WEATHER
 
SELECT A DAY
Number of Records: 140,816;   Date Range: 7/31/96 - 12/17/14
 
SHARE

PRINT THIS DATA

[ ← Previous Day ]
WEATHER ALMANAC - JULY 6, 2013
[ Next Day → ]
[ °C ]   °F
Weather ElementAverageHighLow
Temperature83.9 °F95 °F (2:00 pm)77 °F (3:00 am)
Dewpoint75.7 °F78.8 °F (5:00 pm)73 °F (5:00 am)
Humidity76.5 %94 % (3:00 am)48 % (2:00 pm)
Barometer29.81 in29.88 in (11:00 pm)29.74 in (3:00 pm)
Wind Speed6.5 mph12.7 mph (2:00 am)
Weather ElementAverage
Visibility7.4 mi
Wind DirectionENE (80.3 °)

Weather ElementTotal
Precipitation---
Cooling Degree Days21 (Base 65)
Growing Degree Days36 (Base 50)
Averaged from 29 records on July 6, 2013
WEATHER CONDITIONS BREAKOUT
WIND DIRECTION BREAKOUT
WEATHER BY HOUR - JULY 6, 2013
[ °C ]   °F
Local TimeTemperatureDewpointHumidityBarometerVisibilityWind DirectionWind SpeedGust SpeedPrecipitationEventsConditions
2:00 AM78.8 °F75.2 °F89 %29.83 in6.2 miENE (70°)12.7 mphMostly Cloudy
3:00 AM77.0 °F75.2 °F94 %29.83 in6.2 miEast (80°)8.1 mphScattered Clouds
4:00 AM77.0 °F73.4 °F89 %29.80 in6.2 miEast (80°)2.3 mphScattered Clouds
5:00 AM77.0 °F73.0 °F85 %29.80 in11.0 miENE (60°)6.7 mphHaze
5:00 AM77.0 °F73.4 °F89 %29.80 in6.2 miENE (60°)5.8 mphScattered Clouds
6:00 AM77.0 °F73.4 °F89 %29.80 in6.2 miENE (70°)6.9 mphScattered Clouds
7:00 AM80.6 °F73.4 °F79 %29.83 in6.2 miENE (70°)8.1 mphScattered Clouds
8:00 AM82.4 °F75.2 °F79 %29.86 in6.2 miEast (80°)9.2 mphScattered Clouds
8:00 AM83.0 °F74.0 °F69 %29.86 in12.0 miEast (80°)8.9 mphHaze
9:00 AM84.2 °F73.4 °F70 %29.86 in6.2 miEast (80°)6.9 mphScattered Clouds
10:00 AM86.0 °F75.2 °F70 %29.83 in6.2 miNE (50°)5.8 mphScattered Clouds
11:00 AM91.0 °F75.0 °F51 %29.83 in12.0 miENE (70°)8.9 mphHaze
11:00 AM91.4 °F75.2 °F59 %29.83 in6.2 miENE (70°)5.8 mphScattered Clouds
12:00 PM93.2 °F75.2 °F56 %29.80 in6.2 miENE (70°)11.5 mphMostly Cloudy
1:00 PM93.2 °F75.2 °F56 %29.80 in6.2 miEast (80°)11.5 mphMostly Cloudy
2:00 PM94.0 °F76.0 °F48 %29.78 in12.0 miENE (60°)8.9 mphHaze
2:00 PM95.0 °F77.0 °F56 %29.77 in6.2 miENE (60°)9.2 mphMostly Cloudy
3:00 PM93.2 °F77.0 °F59 %29.74 in6.2 miENE (60°)6.9 mphScattered Clouds
4:00 PM91.4 °F77.0 °F63 %29.74 in5.6 miNNE (30°)4.6 mphMostly Cloudy
5:00 PM82.0 °F78.0 °F85 %29.77 in11.0 miSouth (190°)6.7 mphThunderstormThunderstorm
5:00 PM82.4 °F78.8 °F89 %29.77 in5.6 miSouth (190°)5.8 mphThunderstormLight Thunderstorm
6:00 PM82.4 °F78.8 °F89 %29.77 in6.2 miCalmMostly Cloudy
7:00 PM80.6 °F77.0 °F89 %29.80 in6.2 miSE (130°)2.3 mphMostly Cloudy
8:00 PM81.0 °F77.0 °F85 %29.83 in11.0 miEast (90°)2.2 mphScattered Clouds
8:00 PM80.6 °F77.0 °F89 %29.83 in6.2 miEast (90°)1.2 mphMostly Cloudy
9:00 PM80.6 °F77.0 °F89 %29.86 in6.2 miEast (90°)4.6 mphMostly Cloudy
10:00 PM80.6 °F77.0 °F89 %29.86 in6.2 miEast (90°)3.5 mphScattered Clouds
11:00 PM81.0 °F76.0 °F80 %29.88 in11.0 miEast (90°)6.7 mphHaze
11:00 PM80.6 °F75.2 °F84 %29.86 in6.2 miEast (90°)6.9 mphPartly Cloudy
Hourly data recorded from RPLB, located miles away from Olongapo, Philippines







STORIES FROM OUR PARTNERS